VTK503 UHMM-UHPP

Flight info

Callsign VTK503
Flight time N/A
Altitude 37000
Route OSKET5D OSKET A812 BAKEN BAKEN5P
Aircraft A319/M-SDE3FGHIRWY/LB1

Departure

Time 2026-05-04 22:53
Airport Sokol Airport (UHMM)

Arrival

Time N/A
Airport Yelizovo Airport (UHPP)
Time Latitude Longitude Altitude Speed Heading
2026-05-04 22:31 59.91338 150.72652 578 ft 0 kts 182°
2026-05-04 22:46 59.91335 150.72651 578 ft 1 kts 182°
2026-05-04 22:47 59.91326 150.72650 580 ft 3 kts 183°
2026-05-04 22:47 59.91284 150.72677 580 ft 10 kts 157°
2026-05-04 22:47 59.91209 150.72692 579 ft 12 kts 181°
2026-05-04 22:47 59.91118 150.72685 579 ft 14 kts 182°
2026-05-04 22:48 59.91080 150.72621 582 ft 8 kts 266°
2026-05-04 22:48 59.91082 150.72493 580 ft 11 kts 272°
2026-05-04 22:48 59.91086 150.72312 577 ft 15 kts 273°
2026-05-04 22:48 59.91092 150.72097 577 ft 16 kts 273°
2026-05-04 22:49 59.91099 150.71853 578 ft 19 kts 273°
2026-05-04 22:49 59.91107 150.71594 578 ft 19 kts 273°
2026-05-04 22:49 59.91114 150.71328 578 ft 20 kts 273°
2026-05-04 22:49 59.91121 150.71048 576 ft 21 kts 272°
2026-05-04 22:50 59.91128 150.70732 569 ft 24 kts 273°
2026-05-04 22:50 59.91143 150.70372 562 ft 27 kts 275°
2026-05-04 22:50 59.91151 150.69987 558 ft 28 kts 272°
2026-05-04 22:50 59.91160 150.69618 566 ft 26 kts 272°
2026-05-04 22:51 59.91168 150.69276 558 ft 24 kts 274°
2026-05-04 22:51 59.91167 150.68994 558 ft 12 kts 317°
2026-05-04 22:51 59.91185 150.69031 559 ft 3 kts 97°
2026-05-04 22:51 59.91180 150.69059 559 ft 2 kts 107°
2026-05-04 22:52 59.91178 150.69076 557 ft 1 kts 108°
2026-05-04 22:52 59.91177 150.69079 557 ft 0 kts 108°
2026-05-04 22:52 59.91174 150.69110 560 ft 7 kts 101°
2026-05-04 22:52 59.91169 150.69273 558 ft 25 kts 93°
2026-05-04 22:53 59.91146 150.70144 561 ft 98 kts 93°
2026-05-04 22:53 59.91098 150.71891 577 ft 153 kts 93°
2026-05-04 22:53 59.91031 150.74183 994 ft 164 kts 93°
2026-05-04 22:53 59.90951 150.76370 1953 ft 157 kts 92°
2026-05-04 22:54 59.90887 150.78643 2522 ft 174 kts 92°
2026-05-04 22:54 59.90851 150.81239 2864 ft 203 kts 91°
2026-05-04 22:54 59.90806 150.84217 3435 ft 225 kts 94°
2026-05-04 22:54 59.90713 150.87456 4168 ft 242 kts 96°
2026-05-04 22:55 59.90602 150.90860 5162 ft 244 kts 96°
2026-05-04 22:55 59.90489 150.94243 6233 ft 248 kts 97°
2026-05-04 22:55 59.90368 150.97717 7138 ft 255 kts 98°
2026-05-04 22:55 59.90248 151.01272 8088 ft 260 kts 97°
2026-05-04 22:56 59.90048 151.04833 9210 ft 253 kts 108°
2026-05-04 22:56 59.89254 151.07811 10398 ft 240 kts 133°
2026-05-04 22:56 59.87900 151.09602 11527 ft 232 kts 158°
2026-05-04 22:56 59.86390 151.10643 12505 ft 233 kts 159°
2026-05-04 22:57 59.84816 151.11839 12944 ft 252 kts 158°
2026-05-04 22:57 59.83132 151.13194 13361 ft 272 kts 158°
2026-05-04 22:57 59.81301 151.14692 13617 ft 296 kts 158°
2026-05-04 22:57 59.79333 151.16293 13941 ft 313 kts 158°
2026-05-04 22:58 59.77291 151.17946 14583 ft 319 kts 158°
2026-05-04 22:58 59.75223 151.19613 15312 ft 323 kts 159°
2026-05-04 22:58 59.73103 151.21314 16058 ft 326 kts 159°
2026-05-04 22:58 59.70991 151.23003 16772 ft 329 kts 160°
2026-05-04 22:59 59.68859 151.24699 17492 ft 332 kts 160°
2026-05-04 22:59 59.66711 151.26404 18176 ft 335 kts 160°
2026-05-04 22:59 59.64540 151.28126 18786 ft 337 kts 160°
2026-05-04 22:59 59.62355 151.29860 19407 ft 340 kts 160°
2026-05-04 23:00 59.60155 151.31601 20044 ft 342 kts 160°
2026-05-04 23:00 59.57932 151.33353 20655 ft 345 kts 160°
2026-05-04 23:00 59.55699 151.35113 21260 ft 347 kts 160°
2026-05-04 23:00 59.53447 151.36887 21869 ft 350 kts 161°
2026-05-04 23:01 59.51180 151.38673 22455 ft 353 kts 161°
2026-05-04 23:01 59.48893 151.40471 23039 ft 355 kts 161°
2026-05-04 23:01 59.46587 151.42279 23549 ft 358 kts 161°
2026-05-04 23:01 59.44269 151.44090 24025 ft 360 kts 161°
2026-05-04 23:02 59.41937 151.45907 24499 ft 362 kts 161°
2026-05-04 23:02 59.39593 151.47733 24970 ft 363 kts 161°
2026-05-04 23:02 59.37235 151.49563 25429 ft 365 kts 161°
2026-05-04 23:02 59.34868 151.51398 25883 ft 367 kts 161°
2026-05-04 23:03 59.32493 151.53264 26340 ft 369 kts 160°
2026-05-04 23:03 59.30226 151.55720 26784 ft 376 kts 150°
2026-05-04 23:03 59.28063 151.58633 27232 ft 378 kts 150°
2026-05-04 23:03 59.25888 151.61541 27676 ft 380 kts 151°
2026-05-04 23:04 59.23693 151.64461 28119 ft 382 kts 151°
2026-05-04 23:04 59.21491 151.67383 28543 ft 384 kts 151°
2026-05-04 23:04 59.19276 151.70322 28972 ft 386 kts 151°
2026-05-04 23:04 59.17051 151.73268 29388 ft 388 kts 152°
2026-05-04 23:05 59.14817 151.76217 29796 ft 389 kts 152°
2026-05-04 23:05 59.12565 151.79182 30119 ft 391 kts 152°
2026-05-04 23:05 59.10304 151.82162 30410 ft 394 kts 152°
2026-05-04 23:05 59.08030 151.85164 30697 ft 397 kts 152°
2026-05-04 23:06 59.05713 151.88234 30987 ft 399 kts 152°
2026-05-04 23:06 59.04192 151.90248 31178 ft 401 kts 151°
2026-05-04 23:06 59.01881 151.93309 31471 ft 403 kts 151°
2026-05-04 23:06 58.99564 151.96384 31820 ft 404 kts 151°
2026-05-04 23:07 58.97245 151.99450 32205 ft 403 kts 151°
2026-05-04 23:07 58.94927 152.02503 32556 ft 403 kts 151°
2026-05-04 23:07 58.92603 152.05554 32891 ft 403 kts 151°
2026-05-04 23:07 58.90283 152.08597 33313 ft 403 kts 151°
2026-05-04 23:08 58.87969 152.11629 33714 ft 402 kts 151°
2026-05-04 23:08 58.85656 152.14661 34028 ft 402 kts 151°
2026-05-04 23:08 58.83336 152.17702 34309 ft 403 kts 150°
2026-05-04 23:08 58.81013 152.20736 34567 ft 404 kts 150°
2026-05-04 23:09 58.78679 152.23772 34817 ft 406 kts 150°
2026-05-04 23:09 58.76331 152.26821 35051 ft 407 kts 150°
2026-05-04 23:09 58.73981 152.29872 35291 ft 408 kts 150°
2026-05-04 23:09 58.71621 152.32922 35513 ft 409 kts 150°
2026-05-04 23:10 58.69246 152.35975 35736 ft 411 kts 150°
2026-05-04 23:10 58.66865 152.39028 35961 ft 412 kts 150°
2026-05-04 23:10 58.64482 152.42079 36185 ft 413 kts 150°
2026-05-04 23:10 58.62086 152.45146 36392 ft 414 kts 150°
2026-05-04 23:11 58.59686 152.48211 36589 ft 415 kts 150°
2026-05-04 23:11 58.57274 152.51290 36706 ft 417 kts 150°
2026-05-04 23:11 58.52513 152.57615 36730 ft 416 kts 148°
2026-05-04 23:12 58.47786 152.64140 36725 ft 416 kts 148°
2026-05-04 23:12 58.43080 152.70591 36719 ft 416 kts 149°
2026-05-04 23:13 58.38354 152.76978 36719 ft 416 kts 149°
2026-05-04 23:13 58.33620 152.83338 36718 ft 416 kts 149°
2026-05-04 23:14 58.28878 152.89671 36712 ft 416 kts 149°
2026-05-04 23:14 58.24143 152.96000 36711 ft 417 kts 149°
2026-05-04 23:15 58.19407 153.02338 36713 ft 417 kts 149°
2026-05-04 23:15 58.14631 153.08548 36711 ft 416 kts 151°
2026-05-04 23:16 58.09801 153.14537 36712 ft 415 kts 151°
2026-05-04 23:16 58.04963 153.20490 36712 ft 415 kts 151°
2026-05-04 23:17 58.00139 153.26465 36708 ft 415 kts 151°
2026-05-04 23:17 57.95324 153.32449 36701 ft 414 kts 151°
2026-05-04 23:18 57.90508 153.38407 36704 ft 414 kts 151°
2026-05-04 23:18 57.85696 153.44337 36698 ft 413 kts 152°
2026-05-04 23:19 57.80850 153.50277 36698 ft 413 kts 152°
2026-05-04 23:19 57.76045 153.56156 36690 ft 412 kts 152°
2026-05-04 23:20 57.71251 153.62035 36692 ft 412 kts 151°
2026-05-04 23:20 57.66466 153.67900 36684 ft 411 kts 152°
2026-05-04 23:21 57.61673 153.73731 36688 ft 411 kts 152°
2026-05-04 23:21 57.56890 153.79537 36685 ft 410 kts 152°
2026-05-04 23:22 57.52110 153.85312 36681 ft 409 kts 152°
2026-05-04 23:22 57.47330 153.91069 36678 ft 409 kts 152°
2026-05-04 23:23 57.42551 153.96809 36675 ft 409 kts 152°
2026-05-04 23:23 57.37773 154.02531 36686 ft 409 kts 152°
2026-05-04 23:24 57.32994 154.08243 36680 ft 409 kts 152°
2026-05-04 23:24 57.28217 154.13936 36674 ft 408 kts 152°
2026-05-04 23:25 57.23446 154.19613 36668 ft 407 kts 152°
2026-05-04 23:25 57.18682 154.25251 36656 ft 407 kts 152°
2026-05-04 23:26 57.13903 154.30809 36653 ft 406 kts 153°
2026-05-04 23:26 57.09084 154.36367 36652 ft 406 kts 153°
2026-05-04 23:27 57.04309 154.41888 36643 ft 405 kts 153°
2026-05-04 23:27 56.99530 154.47397 36640 ft 405 kts 153°
2026-05-04 23:28 56.94753 154.52876 36628 ft 405 kts 153°
2026-05-04 23:28 56.89974 154.58335 36627 ft 405 kts 153°
2026-05-04 23:29 56.85190 154.63786 36623 ft 405 kts 153°
2026-05-04 23:29 56.80410 154.69229 36619 ft 405 kts 153°
2026-05-04 23:30 56.75624 154.74662 36610 ft 405 kts 153°
2026-05-04 23:30 56.70841 154.80057 36605 ft 404 kts 153°
2026-05-04 23:31 56.66055 154.85446 36599 ft 404 kts 153°
2026-05-04 23:31 56.61270 154.90824 36596 ft 404 kts 153°
2026-05-04 23:32 56.56483 154.96186 36592 ft 405 kts 153°
2026-05-04 23:32 56.51691 155.01558 36588 ft 405 kts 153°
2026-05-04 23:33 56.46894 155.06895 36580 ft 405 kts 153°
2026-05-04 23:33 56.42091 155.12222 36580 ft 405 kts 153°
2026-05-04 23:34 56.37285 155.17533 36575 ft 405 kts 153°
2026-05-04 23:34 56.32445 155.22876 36573 ft 406 kts 153°
2026-05-04 23:35 56.27623 155.28181 36572 ft 406 kts 153°
2026-05-04 23:35 56.22794 155.33476 36568 ft 407 kts 154°
2026-05-04 23:36 56.17956 155.38761 36567 ft 407 kts 154°
2026-05-04 23:36 56.13947 155.43189 36567 ft 408 kts 153°
2026-05-04 23:37 56.09131 155.48572 36566 ft 408 kts 153°
2026-05-04 23:37 56.03501 155.54835 36559 ft 408 kts 153°
2026-05-04 23:38 55.98676 155.60168 36557 ft 408 kts 153°
2026-05-04 23:38 55.93841 155.65489 36553 ft 409 kts 154°
2026-05-04 23:39 55.89810 155.69898 36553 ft 409 kts 154°
2026-05-04 23:39 55.84926 155.75234 36547 ft 409 kts 154°
2026-05-04 23:40 55.80077 155.80523 36543 ft 409 kts 154°
2026-05-04 23:40 55.75221 155.85814 36542 ft 410 kts 154°
2026-05-04 23:41 55.70359 155.91097 36536 ft 410 kts 154°
2026-05-04 23:41 55.65490 155.96366 36538 ft 410 kts 154°
2026-05-04 23:42 55.60605 156.01614 36530 ft 411 kts 154°
2026-05-04 23:42 55.55723 156.06863 36525 ft 411 kts 154°
2026-05-04 23:43 55.50836 156.12101 36515 ft 411 kts 154°
2026-05-04 23:43 55.45953 156.17329 36512 ft 411 kts 154°
2026-05-04 23:44 55.41058 156.22559 36507 ft 411 kts 154°
2026-05-04 23:44 55.36157 156.27759 36505 ft 412 kts 155°
2026-05-04 23:45 55.31240 156.32919 36506 ft 412 kts 155°
2026-05-04 23:45 55.26322 156.38083 36498 ft 412 kts 155°
2026-05-04 23:46 55.21402 156.43258 36493 ft 412 kts 155°